Phoenix Deer Valley, AZ

9:54 AM MST on December 12, 2019 (GMT -0700)
Phoenix-Deer Valley Municipal

Weather History for KDVT - August, 2019

Change the Weather History Date:

Tuesday, August 13, 2019

  Actual Average Record
Temperature  
Mean Temperature 94 °F -  
Max Temperature 106 °F 99 °F 111 °F (2015)
Min Temperature 82 °F 79 °F 73 °F (2004)
Cooling Degree Days 29    
Growing Degree Days 44 (Base 50)    
Moisture  
Dew Point 44 °F    
Average Humidity 16    
Maximum Humidity 21    
Minimum Humidity 13    
Precipitation  
Precipitation 0.00 in - - ()
Sea Level Pressure  
Sea Level Pressure 29.89 in    
Wind  
Wind Speed 4 mph (WSW)    
Max Wind Speed 12 mph    
Max Gust Speed -    
Visibility 10 miles    
Events      
Averages and records for this station are not official NWS values.
T = Trace of Precipitation, MM = Missing Value Source: NWS Daily Summary

Daily Weather History Graph

Daily Weather History Graph

Search for Another Location

Airport or City:

Astronomy

Aug. 13, 2019 Rise Set
Actual Time 5:48 AM MST 7:17 PM MST
Civil Twilight 5:22 AM MST 7:43 PM MST
Nautical Twilight 4:50 AM MST 8:15 PM MST
Astronomical Twilight 4:17 AM MST 8:48 PM MST
Moon 6:29 PM MST (8/13) 4:00 AM MST (8/13)
Length of Visible Light 14h 21m
Length of Day
13h 28m
Waxing Gibbous, 97% of the Moon is Illuminated
Aug 13
Waxing Gibbous
Aug 15
Full
Aug 23
Last Quarter
Aug 30
New
Sep 5
First Quarter

Hourly Weather History & Observations

Time (MST) Temp. Dew Point Humidity Pressure Visibility Wind Dir Wind Speed Gust Speed Precip Events Conditions
12:53 AM - - N/A% 29.91 in - North - - N/A   Unknown
1:53 AM - - N/A% 29.91 in - North - - N/A   Unknown
2:53 AM - - N/A% 29.91 in - North - - N/A   Unknown
3:53 AM - - N/A% 29.92 in - North - - N/A   Unknown
4:53 AM - - N/A% 29.92 in - North - - N/A   Unknown
5:53 AM - - N/A% 29.95 in - North - - N/A   Unknown
6:53 AM 82.0 °F - N/A% 29.96 in - North - - N/A   Unknown
7:53 AM 87.1 °F 36.0 °F 16% 29.98 in 10.0 mi Calm Calm - N/A   Clear
8:53 AM 90.0 °F 36.0 °F 15% 29.98 in 10.0 mi Calm Calm - N/A   Clear
9:53 AM 95.0 °F 37.9 °F 14% 29.99 in 10.0 mi WSW 5.8 mph - N/A   Clear
10:53 AM 97.0 °F 42.1 °F 15% 29.99 in 10.0 mi SSW 4.6 mph - N/A   Clear
11:53 AM 100.9 °F 42.1 °F 13% 29.97 in 10.0 mi Variable 4.6 mph - N/A   Clear
12:53 PM 104.0 °F 45.0 °F 14% 29.95 in 10.0 mi North - - N/A   Clear
1:53 PM 102.9 °F 46.9 °F 15% 29.92 in 10.0 mi Variable 4.6 mph - N/A   Clear
2:53 PM 105.1 °F 46.0 °F 14% 29.89 in 10.0 mi Variable 5.8 mph - N/A   Clear
3:53 PM 105.1 °F 46.0 °F 14% 29.86 in 10.0 mi West 5.8 mph - N/A   Clear
4:53 PM 106.0 °F 46.9 °F 14% 29.85 in 10.0 mi North - - N/A   Clear
5:53 PM 105.1 °F 48.9 °F 15% 29.84 in 10.0 mi West 9.2 mph - N/A   Clear
6:53 PM 102.9 °F 45.0 °F 14% 29.76 in 10.0 mi SW 11.5 mph - N/A   Clear
7:53 PM 100.9 °F 46.9 °F 16% 29.77 in 10.0 mi SW 9.2 mph - N/A   Clear
8:53 PM 98.1 °F 46.9 °F 18% 29.79 in 10.0 mi WSW 4.6 mph - N/A   Clear
9:53 PM 93.9 °F 46.9 °F 20% 29.80 in 10.0 mi Calm Calm - N/A   Clear
10:53 PM 91.0 °F 45.0 °F 20% 29.81 in 10.0 mi NNE 5.8 mph - N/A   Clear
11:53 PM 90.0 °F 45.0 °F 21% 29.81 in 10.0 mi East 5.8 mph - N/A   Clear